Data supplied by UK-AIR on 5/4/2008
All Data GMT hour ending 
Status: R =Ratified P=Provisional,P*=As supplied
,,Wicken Fen,,,,,,,,,,,,,,,,,,,,,,,
Date,time,"Nitric oxide",status,unit,"Nitrogen dioxide",status,unit,"Nitrogen oxides as nitrogen dioxide",status,unit,"Ozone",status,unit,"Sulphur dioxide",status,unit
 
01-01-2003,01:00,,,,,,,,,,,,,,,
01-01-2003,02:00,,,,,,,,,,38,R,ugm-3,2.1,R,ugm-3
01-01-2003,03:00,,,,,,,,,,38,R,ugm-3,4.8,R,ugm-3
01-01-2003,04:00,,,,,,,,,,30,R,ugm-3,4.0,R,ugm-3
01-01-2003,05:00,,,,,,,,,,24,R,ugm-3,2.4,R,ugm-3
01-01-2003,06:00,,,,,,,,,,28,R,ugm-3,1.1,R,ugm-3
01-01-2003,07:00,,,,,,,,,,32,R,ugm-3,1.1,R,ugm-3
01-01-2003,08:00,,,,,,,,,,36,R,ugm-3,0.8,R,ugm-3
01-01-2003,09:00,,,,,,,,,,38,R,ugm-3,0.5,R,ugm-3
01-01-2003,10:00,,,,,,,,,,36,R,ugm-3,0.8,R,ugm-3
01-01-2003,11:00,,,,,,,,,,36,R,ugm-3,0.8,R,ugm-3
01-01-2003,12:00,,,,,,,,,,38,R,ugm-3,0.8,R,ugm-3
01-01-2003,13:00,,,,,,,,,,34,R,ugm-3,0.8,R,ugm-3
01-01-2003,14:00,,,,,,,,,,38,R,ugm-3,0.5,R,ugm-3
01-01-2003,15:00,,,,,,,,,,42,R,ugm-3,0.3,R,ugm-3
01-01-2003,16:00,,,,,,,,,,44,R,ugm-3,1.1,R,ugm-3
01-01-2003,17:00,,,,,,,,,,56,R,ugm-3,0.3,R,ugm-3
01-01-2003,18:00,,,,,,,,,,,,,,,
01-01-2003,19:00,,,,,,,,,,48,R,ugm-3,0.3,R,ugm-3
01-01-2003,20:00,,,,,,,,,,46,R,ugm-3,0.3,R,ugm-3
01-01-2003,21:00,,,,,,,,,,38,R,ugm-3,0.5,R,ugm-3
01-01-2003,22:00,,,,,,,,,,40,R,ugm-3,1.1,R,ugm-3
01-01-2003,23:00,,,,,,,,,,46,R,ugm-3,2.4,R,ugm-3
01-01-2003,24:00,,,,,,,,,,52,R,ugm-3,2.7,R,ugm-3
02-01-2003,01:00,,,,,,,,,,54,R,ugm-3,2.9,R,ugm-3
02-01-2003,02:00,,,,,,,,,,62,R,ugm-3,1.6,R,ugm-3
02-01-2003,03:00,,,,,,,,,,60,R,ugm-3,1.3,R,ugm-3
02-01-2003,04:00,,,,,,,,,,56,R,ugm-3,1.3,R,ugm-3
02-01-2003,05:00,,,,,,,,,,58,R,ugm-3,1.6,R,ugm-3
02-01-2003,06:00,,,,,,,,,,54,R,ugm-3,0.8,R,ugm-3
02-01-2003,07:00,,,,,,,,,,48,R,ugm-3,0.0,R,ugm-3
02-01-2003,08:00,,,,,,,,,,48,R,ugm-3,0.3,R,ugm-3
02-01-2003,09:00,,,,,,,,,,40,R,ugm-3,0.3,R,ugm-3
02-01-2003,10:00,,,,,,,,,,38,R,ugm-3,0.8,R,ugm-3
02-01-2003,11:00,,,,,,,,,,62,R,ugm-3,0.5,R,ugm-3
02-01-2003,12:00,,,,,,,,,,68,R,ugm-3,0.0,R,ugm-3
02-01-2003,13:00,,,,,,,,,,70,R,ugm-3,0.0,R,ugm-3
02-01-2003,14:00,,,,,,,,,,68,R,ugm-3,0.0,R,ugm-3
02-01-2003,15:00,,,,,,,,,,56,R,ugm-3,1.1,R,ugm-3
02-01-2003,16:00,,,,,,,,,,46,R,ugm-3,0.8,R,ugm-3
02-01-2003,17:00,,,,,,,,,,,,,,,
02-01-2003,18:00,,,,,,,,,,16,R,ugm-3,4.8,R,ugm-3
02-01-2003,19:00,,,,,,,,,,28,R,ugm-3,4.0,R,ugm-3
02-01-2003,20:00,,,,,,,,,,34,R,ugm-3,1.3,R,ugm-3
02-01-2003,21:00,,,,,,,,,,44,R,ugm-3,0.5,R,ugm-3
02-01-2003,22:00,,,,,,,,,,24,R,ugm-3,5.3,R,ugm-3
02-01-2003,23:00,,,,,,,,,,6,R,ugm-3,12.0,R,ugm-3
02-01-2003,24:00,,,,,,,,,,8,R,ugm-3,4.8,R,ugm-3
03-01-2003,01:00,,,,,,,,,,4,R,ugm-3,3.5,R,ugm-3
03-01-2003,02:00,,,,,,,,,,8,R,ugm-3,1.9,R,ugm-3
03-01-2003,03:00,,,,,,,,,,6,R,ugm-3,2.4,R,ugm-3
03-01-2003,04:00,,,,,,,,,,4,R,ugm-3,2.1,R,ugm-3
03-01-2003,05:00,,,,,,,,,,10,R,ugm-3,1.3,R,ugm-3
03-01-2003,06:00,,,,,,,,,,16,R,ugm-3,0.5,R,ugm-3
03-01-2003,07:00,,,,,,,,,,18,R,ugm-3,0.3,R,ugm-3
03-01-2003,08:00,,,,,,,,,,22,R,ugm-3,0.5,R,ugm-3
03-01-2003,09:00,,,,,,,,,,32,R,ugm-3,0.3,R,ugm-3
03-01-2003,10:00,,,,,,,,,,36,R,ugm-3,0.3,R,ugm-3
03-01-2003,11:00,,,,,,,,,,36,R,ugm-3,0.0,R,ugm-3
03-01-2003,12:00,,,,,,,,,,58,R,ugm-3,0.0,R,ugm-3
03-01-2003,13:00,,,,,,,,,,62,R,ugm-3,0.0,R,ugm-3
03-01-2003,14:00,,,,,,,,,,64,R,ugm-3,0.3,R,ugm-3
03-01-2003,15:00,,,,,,,,,,60,R,ugm-3,0.0,R,ugm-3
03-01-2003,16:00,,,,,,,,,,54,R,ugm-3,0.3,R,ugm-3
03-01-2003,17:00,,,,,,,,,,46,R,ugm-3,0.0,R,ugm-3
03-01-2003,18:00,,,,,,,,,,42,R,ugm-3,0.3,R,ugm-3
03-01-2003,19:00,,,,,,,,,,46,R,ugm-3,1.1,R,ugm-3
03-01-2003,20:00,,,,,,,,,,44,R,ugm-3,1.1,R,ugm-3
03-01-2003,21:00,,,,,,,,,,42,R,ugm-3,1.1,R,ugm-3
03-01-2003,22:00,,,,,,,,,,42,R,ugm-3,1.1,R,ugm-3
03-01-2003,23:00,,,,,,,,,,40,R,ugm-3,1.6,R,ugm-3
03-01-2003,24:00,,,,,,,,,,36,R,ugm-3,1.9,R,ugm-3
04-01-2003,01:00,,,,,,,,,,34,R,ugm-3,1.9,R,ugm-3
04-01-2003,02:00,,,,,,,,,,36,R,ugm-3,1.9,R,ugm-3
04-01-2003,03:00,,,,,,,,,,36,R,ugm-3,1.6,R,ugm-3
04-01-2003,04:00,,,,,,,,,,42,R,ugm-3,1.1,R,ugm-3
04-01-2003,05:00,,,,,,,,,,44,R,ugm-3,0.8,R,ugm-3
04-01-2003,06:00,,,,,,,,,,52,R,ugm-3,0.3,R,ugm-3
04-01-2003,07:00,,,,,,,,,,52,R,ugm-3,0.5,R,ugm-3
04-01-2003,08:00,,,,,,,,,,50,R,ugm-3,0.3,R,ugm-3
04-01-2003,09:00,,,,,,,,,,46,R,ugm-3,0.5,R,ugm-3
04-01-2003,10:00,,,,,,,,,,48,R,ugm-3,0.5,R,ugm-3
04-01-2003,11:00,,,,,,,,,,50,R,ugm-3,1.1,R,ugm-3
04-01-2003,12:00,,,,,,,,,,56,R,ugm-3,1.1,R,ugm-3
04-01-2003,13:00,,,,,,,,,,56,R,ugm-3,1.1,R,ugm-3
04-01-2003,14:00,,,,,,,,,,52,R,ugm-3,1.1,R,ugm-3
04-01-2003,15:00,,,,,,,,,,46,R,ugm-3,1.6,R,ugm-3
04-01-2003,16:00,,,,,,,,,,36,R,ugm-3,9.6,R,ugm-3
04-01-2003,17:00,,,,,,,,,,44,R,ugm-3,5.1,R,ugm-3
04-01-2003,18:00,,,,,,,,,,46,R,ugm-3,2.4,R,ugm-3
04-01-2003,19:00,,,,,,,,,,44,R,ugm-3,2.7,R,ugm-3
04-01-2003,20:00,,,,,,,,,,44,R,ugm-3,1.9,R,ugm-3
04-01-2003,21:00,,,,,,,,,,36,R,ugm-3,3.2,R,ugm-3
04-01-2003,22:00,,,,,,,,,,34,R,ugm-3,2.9,R,ugm-3
04-01-2003,23:00,,,,,,,,,,30,R,ugm-3,2.7,R,ugm-3
04-01-2003,24:00,,,,,,,,,,28,R,ugm-3,3.2,R,ugm-3
05-01-2003,01:00,,,,,,,,,,28,R,ugm-3,2.4,R,ugm-3
05-01-2003,02:00,,,,,,,,,,24,R,ugm-3,1.9,R,ugm-3
05-01-2003,03:00,,,,,,,,,,18,R,ugm-3,1.3,R,ugm-3
05-01-2003,04:00,,,,,,,,,,14,R,ugm-3,1.6,R,ugm-3
05-01-2003,05:00,,,,,,,,,,10,R,ugm-3,3.2,R,ugm-3
05-01-2003,06:00,,,,,,,,,,12,R,ugm-3,4.8,R,ugm-3
05-01-2003,07:00,,,,,,,,,,12,R,ugm-3,5.3,R,ugm-3
05-01-2003,08:00,,,,,,,,,,12,R,ugm-3,5.3,R,ugm-3
05-01-2003,09:00,,,,,,,,,,12,R,ugm-3,6.1,R,ugm-3
05-01-2003,10:00,,,,,,,,,,24,R,ugm-3,6.4,R,ugm-3
05-01-2003,11:00,,,,,,,,,,32,R,ugm-3,5.3,R,ugm-3
05-01-2003,12:00,,,,,,,,,,38,R,ugm-3,4.8,R,ugm-3
05-01-2003,13:00,,,,,,,,,,40,R,ugm-3,5.6,R,ugm-3
05-01-2003,14:00,,,,,,,,,,36,R,ugm-3,5.9,R,ugm-3
05-01-2003,15:00,,,,,,,,,,34,R,ugm-3,5.1,R,ugm-3
05-01-2003,16:00,,,,,,,,,,28,R,ugm-3,4.0,R,ugm-3
05-01-2003,17:00,,,,,,,,,,18,R,ugm-3,2.4,R,ugm-3
05-01-2003,18:00,,,,,,,,,,14,R,ugm-3,2.1,R,ugm-3
05-01-2003,19:00,,,,,,,,,,10,R,ugm-3,1.6,R,ugm-3
05-01-2003,20:00,,,,,,,,,,6,R,ugm-3,1.3,R,ugm-3
05-01-2003,21:00,,,,,,,,,,4,R,ugm-3,1.1,R,ugm-3
05-01-2003,22:00,,,,,,,,,,2,R,ugm-3,1.6,R,ugm-3
05-01-2003,23:00,,,,,,,,,,4,R,ugm-3,1.1,R,ugm-3
05-01-2003,24:00,,,,,,,,,,4,R,ugm-3,0.5,R,ugm-3
06-01-2003,01:00,,,,,,,,,,2,R,ugm-3,1.1,R,ugm-3
06-01-2003,02:00,,,,,,,,,,2,R,ugm-3,1.1,R,ugm-3
06-01-2003,03:00,,,,,,,,,,2,R,ugm-3,1.3,R,ugm-3
06-01-2003,04:00,,,,,,,,,,4,R,ugm-3,1.3,R,ugm-3
06-01-2003,05:00,,,,,,,,,,8,R,ugm-3,1.3,R,ugm-3
06-01-2003,06:00,,,,,,,,,,34,R,ugm-3,1.6,R,ugm-3
06-01-2003,07:00,,,,,,,,,,50,R,ugm-3,1.1,R,ugm-3
06-01-2003,08:00,,,,,,,,,,44,R,ugm-3,1.1,R,ugm-3
06-01-2003,09:00,,,,,,,,,,40,R,ugm-3,0.5,R,ugm-3
06-01-2003,10:00,,,,,,,,,,40,R,ugm-3,1.1,R,ugm-3
06-01-2003,11:00,,,,,,,,,,48,R,ugm-3,1.3,R,ugm-3
06-01-2003,12:00,,,,,,,,,,54,R,ugm-3,1.6,R,ugm-3
06-01-2003,13:00,,,,,,,,,,54,R,ugm-3,1.1,R,ugm-3
06-01-2003,14:00,,,,,,,,,,58,R,ugm-3,1.1,R,ugm-3
06-01-2003,15:00,,,,,,,,,,52,R,ugm-3,1.1,R,ugm-3
06-01-2003,16:00,,,,,,,,,,50,R,ugm-3,1.3,R,ugm-3
06-01-2003,17:00,,,,,,,,,,50,R,ugm-3,1.1,R,ugm-3
06-01-2003,18:00,,,,,,,,,,52,R,ugm-3,1.1,R,ugm-3
06-01-2003,19:00,,,,,,,,,,58,R,ugm-3,1.1,R,ugm-3
06-01-2003,20:00,,,,,,,,,,56,R,ugm-3,1.1,R,ugm-3
06-01-2003,21:00,,,,,,,,,,52,R,ugm-3,1.1,R,ugm-3
06-01-2003,22:00,,,,,,,,,,54,R,ugm-3,1.3,R,ugm-3
06-01-2003,23:00,,,,,,,,,,60,R,ugm-3,1.1,R,ugm-3
06-01-2003,24:00,,,,,,,,,,54,R,ugm-3,1.1,R,ugm-3
07-01-2003,01:00,,,,,,,,,,52,R,ugm-3,0.5,R,ugm-3
07-01-2003,02:00,,,,,,,,,,54,R,ugm-3,0.5,R,ugm-3
07-01-2003,03:00,,,,,,,,,,54,R,ugm-3,0.5,R,ugm-3
07-01-2003,04:00,,,,,,,,,,46,R,ugm-3,0.5,R,ugm-3
07-01-2003,05:00,,,,,,,,,,42,R,ugm-3,0.5,R,ugm-3
07-01-2003,06:00,,,,,,,,,,40,R,ugm-3,0.5,R,ugm-3
07-01-2003,07:00,,,,,,,,,,26,R,ugm-3,0.5,R,ugm-3
07-01-2003,08:00,,,,,,,,,,18,R,ugm-3,0.5,R,ugm-3
07-01-2003,09:00,,,,,,,,,,14,R,ugm-3,1.1,R,ugm-3
07-01-2003,10:00,,,,,,,,,,24,R,ugm-3,1.1,R,ugm-3
07-01-2003,11:00,,,,,,,,,,40,R,ugm-3,0.8,R,ugm-3
07-01-2003,12:00,,,,,,,,,,50,R,ugm-3,1.1,R,ugm-3
07-01-2003,13:00,,,,,,,,,,58,R,ugm-3,1.3,R,ugm-3
07-01-2003,14:00,,,,,,,,,,58,R,ugm-3,1.1,R,ugm-3
07-01-2003,15:00,,,,,,,,,,60,R,ugm-3,1.1,R,ugm-3
07-01-2003,16:00,,,,,,,,,,54,R,ugm-3,1.1,R,ugm-3
07-01-2003,17:00,,,,,,,,,,42,R,ugm-3,1.3,R,ugm-3
07-01-2003,18:00,,,,,,,,,,32,R,ugm-3,1.6,R,ugm-3
07-01-2003,19:00,,,,,,,,,,26,R,ugm-3,1.9,R,ugm-3
07-01-2003,20:00,,,,,,,,,,24,R,ugm-3,1.9,R,ugm-3
07-01-2003,21:00,,,,,,,,,,18,R,ugm-3,2.9,R,ugm-3
07-01-2003,22:00,,,,,,,,,,12,R,ugm-3,3.2,R,ugm-3
07-01-2003,23:00,,,,,,,,,,14,R,ugm-3,2.4,R,ugm-3
07-01-2003,24:00,,,,,,,,,,20,R,ugm-3,1.9,R,ugm-3
08-01-2003,01:00,,,,,,,,,,20,R,ugm-3,1.6,R,ugm-3
08-01-2003,02:00,,,,,,,,,,26,R,ugm-3,0.8,R,ugm-3
08-01-2003,03:00,,,,,,,,,,24,R,ugm-3,0.5,R,ugm-3
08-01-2003,04:00,,,,,,,,,,26,R,ugm-3,1.1,R,ugm-3
08-01-2003,05:00,,,,,,,,,,28,R,ugm-3,0.5,R,ugm-3
08-01-2003,06:00,,,,,,,,,,34,R,ugm-3,0.3,R,ugm-3
08-01-2003,07:00,,,,,,,,,,26,R,ugm-3,0.5,R,ugm-3
08-01-2003,08:00,,,,,,,,,,22,R,ugm-3,0.5,R,ugm-3
08-01-2003,09:00,,,,,,,,,,24,R,ugm-3,0.3,R,ugm-3
08-01-2003,10:00,,,,,,,,,,18,R,ugm-3,1.6,R,ugm-3
08-01-2003,11:00,,,,,,,,,,22,R,ugm-3,1.1,R,ugm-3
08-01-2003,12:00,,,,,,,,,,28,R,ugm-3,1.1,R,ugm-3
08-01-2003,13:00,,,,,,,,,,36,R,ugm-3,0.5,R,ugm-3
08-01-2003,14:00,,,,,,,,,,38,R,ugm-3,0.0,R,ugm-3
08-01-2003,15:00,,,,,,,,,,26,R,ugm-3,0.0,R,ugm-3
08-01-2003,16:00,,,,,,,,,,24,R,ugm-3,0.3,R,ugm-3
08-01-2003,17:00,,,,,,,,,,34,R,ugm-3,0.8,R,ugm-3
08-01-2003,18:00,,,,,,,,,,30,R,ugm-3,1.1,R,ugm-3
08-01-2003,19:00,,,,,,,,,,26,R,ugm-3,0.8,R,ugm-3
08-01-2003,20:00,,,,,,,,,,24,R,ugm-3,1.1,R,ugm-3
08-01-2003,21:00,,,,,,,,,,24,R,ugm-3,0.8,R,ugm-3
08-01-2003,22:00,,,,,,,,,,28,R,ugm-3,1.1,R,ugm-3
08-01-2003,23:00,,,,,,,,,,38,R,ugm-3,1.3,R,ugm-3
08-01-2003,24:00,,,,,,,,,,38,R,ugm-3,0.8,R,ugm-3
09-01-2003,01:00,,,,,,,,,,46,R,ugm-3,0.0,R,ugm-3
09-01-2003,02:00,,,,,,,,,,52,R,ugm-3,0.0,R,ugm-3
09-01-2003,03:00,,,,,,,,,,50,R,ugm-3,0.0,R,ugm-3
09-01-2003,04:00,,,,,,,,,,50,R,ugm-3,0.0,R,ugm-3
09-01-2003,05:00,,,,,,,,,,54,R,ugm-3,0.0,R,ugm-3
09-01-2003,06:00,,,,,,,,,,52,R,ugm-3,0.0,R,ugm-3
09-01-2003,07:00,,,,,,,,,,46,R,ugm-3,0.0,R,ugm-3
09-01-2003,08:00,,,,,,,,,,42,R,ugm-3,0.0,R,ugm-3
09-01-2003,09:00,,,,,,,,,,40,R,ugm-3,0.3,R,ugm-3
09-01-2003,10:00,,,,,,,,,,46,R,ugm-3,0.3,R,ugm-3
09-01-2003,11:00,,,,,,,,,,46,R,ugm-3,0.8,R,ugm-3
09-01-2003,12:00,,,,,,,,,,48,R,ugm-3,1.1,R,ugm-3
09-01-2003,13:00,,,,,,,,,,52,R,ugm-3,1.1,R,ugm-3
09-01-2003,14:00,,,,,,,,,,56,R,ugm-3,0.8,R,ugm-3
09-01-2003,15:00,,,,,,,,,,54,R,ugm-3,0.5,R,ugm-3
09-01-2003,16:00,,,,,,,,,,46,R,ugm-3,0.0,R,ugm-3
09-01-2003,17:00,,,,,,,,,,30,R,ugm-3,0.0,R,ugm-3
09-01-2003,18:00,,,,,,,,,,20,R,ugm-3,0.5,R,ugm-3
09-01-2003,19:00,,,,,,,,,,26,R,ugm-3,0.8,R,ugm-3
09-01-2003,20:00,,,,,,,,,,24,R,ugm-3,0.3,R,ugm-3
09-01-2003,21:00,,,,,,,,,,34,R,ugm-3,0.5,R,ugm-3
09-01-2003,22:00,,,,,,,,,,46,R,ugm-3,0.3,R,ugm-3
09-01-2003,23:00,,,,,,,,,,46,R,ugm-3,0.3,R,ugm-3
09-01-2003,24:00,,,,,,,,,,38,R,ugm-3,0.3,R,ugm-3
10-01-2003,01:00,,,,,,,,,,44,R,ugm-3,0.5,R,ugm-3
10-01-2003,02:00,,,,,,,,,,42,R,ugm-3,0.3,R,ugm-3
10-01-2003,03:00,,,,,,,,,,42,R,ugm-3,0.0,R,ugm-3
10-01-2003,04:00,,,,,,,,,,52,R,ugm-3,0.0,R,ugm-3
10-01-2003,05:00,,,,,,,,,,52,R,ugm-3,0.3,R,ugm-3
10-01-2003,06:00,,,,,,,,,,44,R,ugm-3,0.3,R,ugm-3
10-01-2003,07:00,,,,,,,,,,50,R,ugm-3,0.8,R,ugm-3
10-01-2003,08:00,,,,,,,,,,54,R,ugm-3,0.0,R,ugm-3
10-01-2003,09:00,,,,,,,,,,44,R,ugm-3,1.3,R,ugm-3
10-01-2003,10:00,,,,,,,,,,42,R,ugm-3,1.3,R,ugm-3
10-01-2003,11:00,,,,,,,,,,42,R,ugm-3,1.9,R,ugm-3
10-01-2003,12:00,,,,,,,,,,46,R,ugm-3,2.1,R,ugm-3
10-01-2003,13:00,,,,,,,,,,,,,,,
10-01-2003,14:00,,,,,,,,,,44,R,ugm-3,1.9,R,ugm-3
10-01-2003,15:00,,,,,,,,,,44,R,ugm-3,1.6,R,ugm-3
10-01-2003,16:00,,,,,,,,,,42,R,ugm-3,1.3,R,ugm-3
10-01-2003,17:00,,,,,,,,,,38,R,ugm-3,0.8,R,ugm-3
10-01-2003,18:00,,,,,,,,,,40,R,ugm-3,0.3,R,ugm-3
10-01-2003,19:00,,,,,,,,,,44,R,ugm-3,0.0,R,ugm-3
10-01-2003,20:00,,,,,,,,,,52,R,ugm-3,0.0,R,ugm-3
10-01-2003,21:00,,,,,,,,,,46,R,ugm-3,0.0,R,ugm-3
10-01-2003,22:00,,,,,,,,,,40,R,ugm-3,0.3,R,ugm-3
10-01-2003,23:00,,,,,,,,,,34,R,ugm-3,0.3,R,ugm-3
10-01-2003,24:00,,,,,,,,,,26,R,ugm-3,0.5,R,ugm-3
11-01-2003,01:00,,,,,,,,,,22,R,ugm-3,1.3,R,ugm-3
11-01-2003,02:00,,,,,,,,,,14,R,ugm-3,1.9,R,ugm-3
11-01-2003,03:00,,,,,,,,,,12,R,ugm-3,2.1,R,ugm-3
11-01-2003,04:00,,,,,,,,,,8,R,ugm-3,1.9,R,ugm-3
11-01-2003,05:00,,,,,,,,,,8,R,ugm-3,1.3,R,ugm-3
11-01-2003,06:00,,,,,,,,,,6,R,ugm-3,0.8,R,ugm-3
11-01-2003,07:00,,,,,,,,,,4,R,ugm-3,0.5,R,ugm-3
11-01-2003,08:00,,,,,,,,,,2,R,ugm-3,1.1,R,ugm-3
11-01-2003,09:00,,,,,,,,,,6,R,ugm-3,0.5,R,ugm-3
11-01-2003,10:00,,,,,,,,,,6,R,ugm-3,1.1,R,ugm-3
11-01-2003,11:00,,,,,,,,,,10,R,ugm-3,1.6,R,ugm-3
11-01-2003,12:00,,,,,,,,,,16,R,ugm-3,2.4,R,ugm-3
11-01-2003,13:00,,,,,,,,,,32,R,ugm-3,3.5,R,ugm-3
11-01-2003,14:00,,,,,,,,,,38,R,ugm-3,3.5,R,ugm-3
11-01-2003,15:00,,,,,,,,,,26,R,ugm-3,3.5,R,ugm-3
11-01-2003,16:00,,,,,,,,,,28,R,ugm-3,3.2,R,ugm-3
11-01-2003,17:00,,,,,,,,,,14,R,ugm-3,1.9,R,ugm-3
11-01-2003,18:00,,,,,,,,,,10,R,ugm-3,1.6,R,ugm-3
11-01-2003,19:00,,,,,,,,,,4,R,ugm-3,1.6,R,ugm-3
11-01-2003,20:00,,,,,,,,,,2,R,ugm-3,2.9,R,ugm-3
11-01-2003,21:00,,,,,,,,,,2,R,ugm-3,4.5,R,ugm-3
11-01-2003,22:00,,,,,,,,,,4,R,ugm-3,4.0,R,ugm-3
11-01-2003,23:00,,,,,,,,,,2,R,ugm-3,1.9,R,ugm-3
11-01-2003,24:00,,,,,,,,,,4,R,ugm-3,0.8,R,ugm-3
12-01-2003,01:00,,,,,,,,,,4,R,ugm-3,3.7,R,ugm-3
12-01-2003,02:00,,,,,,,,,,0,R,ugm-3,6.9,R,ugm-3
12-01-2003,03:00,,,,,,,,,,2,R,ugm-3,11.7,R,ugm-3
12-01-2003,04:00,,,,,,,,,,2,R,ugm-3,5.6,R,ugm-3
12-01-2003,05:00,,,,,,,,,,2,R,ugm-3,2.4,R,ugm-3
12-01-2003,06:00,,,,,,,,,,2,R,ugm-3,2.4,R,ugm-3
12-01-2003,07:00,,,,,,,,,,2,R,ugm-3,2.9,R,ugm-3
12-01-2003,08:00,,,,,,,,,,2,R,ugm-3,3.5,R,ugm-3
12-01-2003,09:00,,,,,,,,,,4,R,ugm-3,5.1,R,ugm-3
12-01-2003,10:00,,,,,,,,,,8,R,ugm-3,6.9,R,ugm-3
12-01-2003,11:00,,,,,,,,,,8,R,ugm-3,7.7,R,ugm-3
12-01-2003,12:00,,,,,,,,,,12,R,ugm-3,6.4,R,ugm-3
12-01-2003,13:00,,,,,,,,,,16,R,ugm-3,6.7,R,ugm-3
12-01-2003,14:00,,,,,,,,,,24,R,ugm-3,5.9,R,ugm-3
12-01-2003,15:00,,,,,,,,,,24,R,ugm-3,4.5,R,ugm-3
12-01-2003,16:00,,,,,,,,,,24,R,ugm-3,6.1,R,ugm-3
12-01-2003,17:00,,,,,,,,,,12,R,ugm-3,3.5,R,ugm-3
12-01-2003,18:00,,,,,,,,,,20,R,ugm-3,2.9,R,ugm-3
12-01-2003,19:00,,,,,,,,,,22,R,ugm-3,3.7,R,ugm-3
12-01-2003,20:00,,,,,,,,,,22,R,ugm-3,3.2,R,ugm-3
12-01-2003,21:00,,,,,,,,,,18,R,ugm-3,4.3,R,ugm-3
12-01-2003,22:00,,,,,,,,,,30,R,ugm-3,2.4,R,ugm-3
12-01-2003,23:00,,,,,,,,,,32,R,ugm-3,1.9,R,ugm-3
12-01-2003,24:00,,,,,,,,,,34,R,ugm-3,2.4,R,ugm-3
13-01-2003,01:00,,,,,,,,,,34,R,ugm-3,2.4,R,ugm-3
13-01-2003,02:00,,,,,,,,,,40,R,ugm-3,3.2,R,ugm-3
13-01-2003,03:00,,,,,,,,,,46,R,ugm-3,5.3,R,ugm-3
13-01-2003,04:00,,,,,,,,,,44,R,ugm-3,4.0,R,ugm-3
13-01-2003,05:00,,,,,,,,,,44,R,ugm-3,2.4,R,ugm-3
13-01-2003,06:00,,,,,,,,,,42,R,ugm-3,1.9,R,ugm-3
13-01-2003,07:00,,,,,,,,,,48,R,ugm-3,1.1,R,ugm-3
13-01-2003,08:00,,,,,,,,,,46,R,ugm-3,0.8,R,ugm-3
13-01-2003,09:00,,,,,,,,,,44,R,ugm-3,0.8,R,ugm-3
13-01-2003,10:00,,,,,,,,,,52,R,ugm-3,1.1,R,ugm-3
13-01-2003,11:00,,,,,,,,,,50,R,ugm-3,1.1,R,ugm-3
13-01-2003,12:00,,,,,,,,,,48,R,ugm-3,1.1,R,ugm-3
13-01-2003,13:00,,,,,,,,,,50,R,ugm-3,1.1,R,ugm-3
13-01-2003,14:00,,,,,,,,,,50,R,ugm-3,0.8,R,ugm-3
13-01-2003,15:00,,,,,,,,,,48,R,ugm-3,0.3,R,ugm-3
13-01-2003,16:00,,,,,,,,,,46,R,ugm-3,0.3,R,ugm-3
13-01-2003,17:00,,,,,,,,,,44,R,ugm-3,0.3,R,ugm-3
13-01-2003,18:00,,,,,,,,,,44,R,ugm-3,0.0,R,ugm-3
13-01-2003,19:00,,,,,,,,,,48,R,ugm-3,0.0,R,ugm-3
13-01-2003,20:00,,,,,,,,,,44,R,ugm-3,1.1,R,ugm-3
13-01-2003,21:00,,,,,,,,,,42,R,ugm-3,1.1,R,ugm-3
13-01-2003,22:00,,,,,,,,,,34,R,ugm-3,0.8,R,ugm-3
13-01-2003,23:00,,,,,,,,,,42,R,ugm-3,0.3,R,ugm-3
13-01-2003,24:00,,,,,,,,,,50,R,ugm-3,1.1,R,ugm-3
14-01-2003,01:00,,,,,,,,,,56,R,ugm-3,1.9,R,ugm-3
14-01-2003,02:00,,,,,,,,,,56,R,ugm-3,1.1,R,ugm-3
14-01-2003,03:00,,,,,,,,,,54,R,ugm-3,2.4,R,ugm-3
14-01-2003,04:00,,,,,,,,,,58,R,ugm-3,2.1,R,ugm-3
14-01-2003,05:00,,,,,,,,,,60,R,ugm-3,0.3,R,ugm-3
14-01-2003,06:00,,,,,,,,,,58,R,ugm-3,0.3,R,ugm-3
14-01-2003,07:00,,,,,,,,,,52,R,ugm-3,0.0,R,ugm-3
14-01-2003,08:00,,,,,,,,,,46,R,ugm-3,0.8,R,ugm-3
14-01-2003,09:00,,,,,,,,,,46,R,ugm-3,0.5,R,ugm-3
14-01-2003,10:00,,,,,,,,,,44,R,ugm-3,0.8,R,ugm-3
14-01-2003,11:00,,,,,,,,,,46,R,ugm-3,1.1,R,ugm-3
14-01-2003,12:00,,,,,,,,,,50,R,ugm-3,1.9,R,ugm-3
14-01-2003,13:00,,,,,,,,,,56,R,ugm-3,1.9,R,ugm-3
14-01-2003,14:00,,,,,,,,,,56,R,ugm-3,1.6,R,ugm-3
14-01-2003,15:00,,,,,,,,,,54,R,ugm-3,0.5,R,ugm-3
14-01-2003,16:00,,,,,,,,,,56,R,ugm-3,0.0,R,ugm-3
14-01-2003,17:00,,,,,,,,,,54,R,ugm-3,1.3,R,ugm-3
14-01-2003,18:00,,,,,,,,,,52,R,ugm-3,3.7,R,ugm-3
14-01-2003,19:00,,,,,,,,,,54,R,ugm-3,6.7,R,ugm-3
14-01-2003,20:00,,,,,,,,,,58,R,ugm-3,4.8,R,ugm-3
14-01-2003,21:00,,,,,,,,,,60,R,ugm-3,5.1,R,ugm-3
14-01-2003,22:00,,,,,,,,,,62,R,ugm-3,5.6,R,ugm-3
14-01-2003,23:00,,,,,,,,,,64,R,ugm-3,5.9,R,ugm-3
14-01-2003,24:00,,,,,,,,,,68,R,ugm-3,4.8,R,ugm-3
15-01-2003,01:00,,,,,,,,,,68,R,ugm-3,2.1,R,ugm-3
15-01-2003,02:00,,,,,,,,,,70,R,ugm-3,1.6,R,ugm-3
15-01-2003,03:00,,,,,,,,,,72,R,ugm-3,1.3,R,ugm-3
15-01-2003,04:00,,,,,,,,,,70,R,ugm-3,1.1,R,ugm-3
15-01-2003,05:00,,,,,,,,,,68,R,ugm-3,0.0,R,ugm-3
15-01-2003,06:00,,,,,,,,,,66,R,ugm-3,0.3,R,ugm-3
15-01-2003,07:00,,,,,,,,,,68,R,ugm-3,0.0,R,ugm-3
15-01-2003,08:00,,,,,,,,,,62,R,ugm-3,0.0,R,ugm-3
15-01-2003,09:00,,,,,,,,,,62,R,ugm-3,0.0,R,ugm-3
15-01-2003,10:00,,,,,,,,,,58,R,ugm-3,0.3,R,ugm-3
15-01-2003,11:00,,,,,,,,,,54,R,ugm-3,0.8,R,ugm-3
15-01-2003,12:00,,,,,,,,,,58,R,ugm-3,0.8,R,ugm-3
15-01-2003,13:00,,,,,,,,,,54,R,ugm-3,1.9,R,ugm-3
15-01-2003,14:00,,,,,,,,,,52,R,ugm-3,1.3,R,ugm-3
15-01-2003,15:00,,,,,,,,,,56,R,ugm-3,1.3,R,ugm-3
15-01-2003,16:00,,,,,,,,,,48,R,ugm-3,1.6,R,ugm-3
15-01-2003,17:00,,,,,,,,,,34,R,ugm-3,1.1,R,ugm-3
15-01-2003,18:00,,,,,,,,,,26,R,ugm-3,0.8,R,ugm-3
15-01-2003,19:00,,,,,,,,,,22,R,ugm-3,1.1,R,ugm-3
15-01-2003,20:00,,,,,,,,,,30,R,ugm-3,0.5,R,ugm-3
15-01-2003,21:00,,,,,,,,,,36,R,ugm-3,0.0,R,ugm-3
15-01-2003,22:00,,,,,,,,,,32,R,ugm-3,2.1,R,ugm-3
15-01-2003,23:00,,,,,,,,,,40,R,ugm-3,0.8,R,ugm-3
15-01-2003,24:00,,,,,,,,,,46,R,ugm-3,0.0,R,ugm-3
16-01-2003,01:00,,,,,,,,,,46,R,ugm-3,0.5,R,ugm-3
16-01-2003,02:00,,,,,,,,,,46,R,ugm-3,0.3,R,ugm-3
16-01-2003,03:00,,,,,,,,,,46,R,ugm-3,0.5,R,ugm-3
16-01-2003,04:00,,,,,,,,,,48,R,ugm-3,0.3,R,ugm-3
16-01-2003,05:00,,,,,,,,,,44,R,ugm-3,0.3,R,ugm-3
16-01-2003,06:00,,,,,,,,,,32,R,ugm-3,1.9,R,ugm-3
16-01-2003,07:00,,,,,,,,,,32,R,ugm-3,0.8,R,ugm-3
16-01-2003,08:00,,,,,,,,,,28,R,ugm-3,1.1,R,ugm-3
16-01-2003,09:00,,,,,,,,,,16,R,ugm-3,2.1,R,ugm-3
16-01-2003,10:00,,,,,,,,,,,,,,,
16-01-2003,11:00,,,,,,,,,,,,,,,
16-01-2003,12:00,,,,,,,,,,,,,,,
16-01-2003,13:00,,,,,,,,,,42,R,ugm-3,2.1,R,ugm-3
16-01-2003,14:00,,,,,,,,,,44,R,ugm-3,1.9,R,ugm-3
16-01-2003,15:00,,,,,,,,,,20,R,ugm-3,2.7,R,ugm-3
16-01-2003,16:00,,,,,,,,,,14,R,ugm-3,5.6,R,ugm-3
16-01-2003,17:00,,,,,,,,,,24,R,ugm-3,5.1,R,ugm-3
16-01-2003,18:00,,,,,,,,,,8,R,ugm-3,1.9,R,ugm-3
16-01-2003,19:00,,,,,,,,,,14,R,ugm-3,1.3,R,ugm-3
16-01-2003,20:00,,,,,,,,,,8,R,ugm-3,1.6,R,ugm-3
16-01-2003,21:00,,,,,,,,,,32,R,ugm-3,1.6,R,ugm-3
16-01-2003,22:00,,,,,,,,,,40,R,ugm-3,1.6,R,ugm-3
16-01-2003,23:00,,,,,,,,,,48,R,ugm-3,1.6,R,ugm-3
16-01-2003,24:00,,,,,,,,,,56,R,ugm-3,1.6,R,ugm-3
17-01-2003,01:00,,,,,,,,,,60,R,ugm-3,1.1,R,ugm-3
17-01-2003,02:00,,,,,,,,,,64,R,ugm-3,1.3,R,ugm-3
17-01-2003,03:00,,,,,,,,,,60,R,ugm-3,1.1,R,ugm-3
17-01-2003,04:00,,,,,,,,,,54,R,ugm-3,1.1,R,ugm-3
17-01-2003,05:00,,,,,,,,,,56,R,ugm-3,0.5,R,ugm-3
17-01-2003,06:00,,,,,,,,,,56,R,ugm-3,0.5,R,ugm-3
17-01-2003,07:00,,,,,,,,,,54,R,ugm-3,0.5,R,ugm-3
17-01-2003,08:00,,,,,,,,,,54,R,ugm-3,0.5,R,ugm-3
17-01-2003,09:00,,,,,,,,,,46,R,ugm-3,0.5,R,ugm-3
17-01-2003,10:00,,,,,,,,,,46,R,ugm-3,0.5,R,ugm-3
17-01-2003,11:00,,,,,,,,,,44,R,ugm-3,0.5,R,ugm-3
17-01-2003,12:00,,,,,,,,,,46,R,ugm-3,0.5,R,ugm-3
17-01-2003,13:00,,,,,,,,,,42,R,ugm-3,0.5,R,ugm-3
17-01-2003,14:00,,,,,,,,,,40,R,ugm-3,0.5,R,ugm-3
17-01-2003,15:00,,,,,,,,,,40,R,ugm-3,0.5,R,ugm-3
17-01-2003,16:00,,,,,,,,,,34,R,ugm-3,0.5,R,ugm-3
17-01-2003,17:00,,,,,,,,,,30,R,ugm-3,0.5,R,ugm-3
17-01-2003,18:00,,,,,,,,,,24,R,ugm-3,0.5,R,ugm-3
17-01-2003,19:00,,,,,,,,,,12,R,ugm-3,0.8,R,ugm-3
17-01-2003,20:00,,,,,,,,,,16,R,ugm-3,1.6,R,ugm-3
17-01-2003,21:00,,,,,,,,,,20,R,ugm-3,0.8,R,ugm-3
17-01-2003,22:00,,,,,,,,,,18,R,ugm-3,0.8,R,ugm-3
17-01-2003,23:00,,,,,,,,,,16,R,ugm-3,0.8,R,ugm-3
17-01-2003,24:00,,,,,,,,,,16,R,ugm-3,0.8,R,ugm-3
18-01-2003,01:00,,,,,,,,,,22,R,ugm-3,1.3,R,ugm-3
18-01-2003,02:00,,,,,,,,,,26,R,ugm-3,1.1,R,ugm-3
18-01-2003,03:00,,,,,,,,,,28,R,ugm-3,1.1,R,ugm-3
18-01-2003,04:00,,,,,,,,,,28,R,ugm-3,1.1,R,ugm-3
18-01-2003,05:00,,,,,,,,,,28,R,ugm-3,1.3,R,ugm-3
18-01-2003,06:00,,,,,,,,,,34,R,ugm-3,1.6,R,ugm-3
18-01-2003,07:00,,,,,,,,,,30,R,ugm-3,1.9,R,ugm-3
18-01-2003,08:00,,,,,,,,,,24,R,ugm-3,1.1,R,ugm-3
18-01-2003,09:00,,,,,,,,,,26,R,ugm-3,1.3,R,ugm-3
18-01-2003,10:00,,,,,,,,,,28,R,ugm-3,1.3,R,ugm-3
18-01-2003,11:00,,,,,,,,,,36,R,ugm-3,1.1,R,ugm-3
18-01-2003,12:00,,,,,,,,,,38,R,ugm-3,0.8,R,ugm-3
18-01-2003,13:00,,,,,,,,,,36,R,ugm-3,1.3,R,ugm-3
18-01-2003,14:00,,,,,,,,,,26,R,ugm-3,3.7,R,ugm-3
18-01-2003,15:00,,,,,,,,,,36,R,ugm-3,2.1,R,ugm-3
18-01-2003,16:00,,,,,,,,,,44,R,ugm-3,1.6,R,ugm-3
18-01-2003,17:00,,,,,,,,,,50,R,ugm-3,1.1,R,ugm-3
18-01-2003,18:00,,,,,,,,,,52,R,ugm-3,1.6,R,ugm-3
18-01-2003,19:00,,,,,,,,,,48,R,ugm-3,4.0,R,ugm-3
18-01-2003,20:00,,,,,,,,,,42,R,ugm-3,5.9,R,ugm-3
18-01-2003,21:00,,,,,,,,,,40,R,ugm-3,5.1,R,ugm-3
18-01-2003,22:00,,,,,,,,,,46,R,ugm-3,6.1,R,ugm-3
18-01-2003,23:00,,,,,,,,,,52,R,ugm-3,2.7,R,ugm-3
18-01-2003,24:00,,,,,,,,,,52,R,ugm-3,1.9,R,ugm-3
19-01-2003,01:00,,,,,,,,,,46,R,ugm-3,1.1,R,ugm-3
19-01-2003,02:00,,,,,,,,,,44,R,ugm-3,1.9,R,ugm-3
19-01-2003,03:00,,,,,,,,,,40,R,ugm-3,3.2,R,ugm-3
19-01-2003,04:00,,,,,,,,,,34,R,ugm-3,4.3,R,ugm-3
19-01-2003,05:00,,,,,,,,,,36,R,ugm-3,3.7,R,ugm-3
19-01-2003,06:00,,,,,,,,,,36,R,ugm-3,2.9,R,ugm-3
19-01-2003,07:00,,,,,,,,,,36,R,ugm-3,2.9,R,ugm-3
19-01-2003,08:00,,,,,,,,,,36,R,ugm-3,1.6,R,ugm-3
19-01-2003,09:00,,,,,,,,,,34,R,ugm-3,1.3,R,ugm-3
19-01-2003,10:00,,,,,,,,,,36,R,ugm-3,0.5,R,ugm-3
19-01-2003,11:00,,,,,,,,,,34,R,ugm-3,0.0,R,ugm-3
19-01-2003,12:00,,,,,,,,,,50,R,ugm-3,0.0,R,ugm-3
19-01-2003,13:00,,,,,,,,,,46,R,ugm-3,1.1,R,ugm-3
19-01-2003,14:00,,,,,,,,,,50,R,ugm-3,0.0,R,ugm-3
19-01-2003,15:00,,,,,,,,,,56,R,ugm-3,0.5,R,ugm-3
19-01-2003,16:00,,,,,,,,,,60,R,ugm-3,0.3,R,ugm-3
19-01-2003,17:00,,,,,,,,,,48,R,ugm-3,1.1,R,ugm-3
19-01-2003,18:00,,,,,,,,,,38,R,ugm-3,1.1,R,ugm-3
19-01-2003,19:00,,,,,,,,,,36,R,ugm-3,0.0,R,ugm-3
19-01-2003,20:00,,,,,,,,,,26,R,ugm-3,0.5,R,ugm-3
19-01-2003,21:00,,,,,,,,,,32,R,ugm-3,0.0,R,ugm-3
19-01-2003,22:00,,,,,,,,,,42,R,ugm-3,0.0,R,ugm-3
19-01-2003,23:00,,,,,,,,,,42,R,ugm-3,0.8,R,ugm-3
19-01-2003,24:00,,,,,,,,,,46,R,ugm-3,0.3,R,ugm-3
20-01-2003,01:00,,,,,,,,,,48,R,ugm-3,0.8,R,ugm-3
20-01-2003,02:00,,,,,,,,,,48,R,ugm-3,1.1,R,ugm-3
20-01-2003,03:00,,,,,,,,,,52,R,ugm-3,1.1,R,ugm-3
20-01-2003,04:00,,,,,,,,,,52,R,ugm-3,1.3,R,ugm-3
20-01-2003,05:00,,,,,,,,,,54,R,ugm-3,1.1,R,ugm-3
20-01-2003,06:00,,,,,,,,,,58,R,ugm-3,0.8,R,ugm-3
20-01-2003,07:00,,,,,,,,,,58,R,ugm-3,0.5,R,ugm-3
20-01-2003,08:00,,,,,,,,,,56,R,ugm-3,0.3,R,ugm-3
20-01-2003,09:00,,,,,,,,,,54,R,ugm-3,1.3,R,ugm-3
20-01-2003,10:00,,,,,,,,,,56,R,ugm-3,1.6,R,ugm-3
20-01-2003,11:00,,,,,,,,,,62,R,ugm-3,1.1,R,ugm-3
20-01-2003,12:00,,,,,,,,,,60,R,ugm-3,1.1,R,ugm-3
20-01-2003,13:00,,,,,,,,,,56,R,ugm-3,1.1,R,ugm-3
20-01-2003,14:00,,,,,,,,,,54,R,ugm-3,1.1,R,ugm-3
20-01-2003,15:00,,,,,,,,,,54,R,ugm-3,1.1,R,ugm-3
20-01-2003,16:00,,,,,,,,,,50,R,ugm-3,1.1,R,ugm-3
20-01-2003,17:00,,,,,,,,,,48,R,ugm-3,0.8,R,ugm-3
20-01-2003,18:00,,,,,,,,,,60,R,ugm-3,1.3,R,ugm-3
20-01-2003,19:00,,,,,,,,,,60,R,ugm-3,0.8,R,ugm-3
20-01-2003,20:00,,,,,,,,,,52,R,ugm-3,0.3,R,ugm-3
20-01-2003,21:00,,,,,,,,,,48,R,ugm-3,0.8,R,ugm-3
20-01-2003,22:00,,,,,,,,,,46,R,ugm-3,1.1,R,ugm-3
20-01-2003,23:00,,,,,,,,,,52,R,ugm-3,1.1,R,ugm-3
20-01-2003,24:00,,,,,,,,,,50,R,ugm-3,0.8,R,ugm-3
21-01-2003,01:00,,,,,,,,,,50,R,ugm-3,1.1,R,ugm-3
21-01-2003,02:00,,,,,,,,,,62,R,ugm-3,0.5,R,ugm-3
21-01-2003,03:00,,,,,,,,,,66,R,ugm-3,0.5,R,ugm-3
21-01-2003,04:00,,,,,,,,,,58,R,ugm-3,1.6,R,ugm-3
21-01-2003,05:00,,,,,,,,,,58,R,ugm-3,1.1,R,ugm-3
21-01-2003,06:00,,,,,,,,,,62,R,ugm-3,0.5,R,ugm-3